Year,Month,Day,Hour,Minute,Value (Times are PST for temperature in C)
2010,08,16,00,00,19.50
2010,08,16,00,01,19.50
2010,08,16,00,02,19.40
2010,08,16,00,03,19.40
2010,08,16,00,04,19.40
2010,08,16,00,05,19.30
2010,08,16,00,06,19.30
2010,08,16,00,07,19.30
2010,08,16,00,08,19.30
2010,08,16,00,09,19.30
2010,08,16,00,10,19.30
2010,08,16,00,11,19.30
2010,08,16,00,12,19.30
2010,08,16,00,13,19.30
2010,08,16,00,14,19.30
2010,08,16,00,15,19.30
2010,08,16,00,16,19.30
2010,08,16,00,17,19.30
2010,08,16,00,18,19.30
2010,08,16,00,19,19.30
2010,08,16,00,20,19.30
2010,08,16,00,21,19.30
2010,08,16,00,22,19.30
2010,08,16,00,23,19.30
2010,08,16,00,24,19.30
2010,08,16,00,25,19.30
2010,08,16,00,26,19.30
2010,08,16,00,27,19.30
2010,08,16,00,28,19.20
2010,08,16,00,29,19.20
2010,08,16,00,30,19.20
2010,08,16,00,31,19.20
2010,08,16,00,32,19.20
2010,08,16,00,33,19.20
2010,08,16,00,34,19.20
2010,08,16,00,35,19.20
2010,08,16,00,36,19.20
2010,08,16,00,37,19.20
2010,08,16,00,38,19.20
2010,08,16,00,39,19.30
2010,08,16,00,40,19.30
2010,08,16,00,41,19.30
2010,08,16,00,42,19.30
2010,08,16,00,43,19.30
2010,08,16,00,44,19.30
2010,08,16,00,45,19.30
2010,08,16,00,46,19.30
2010,08,16,00,47,19.30
2010,08,16,00,48,19.30
2010,08,16,00,49,19.30
2010,08,16,00,50,19.30
2010,08,16,00,51,19.30
2010,08,16,00,52,19.30
2010,08,16,00,53,19.30
2010,08,16,00,54,19.30
2010,08,16,00,55,19.30
2010,08,16,00,56,19.30
2010,08,16,00,57,19.30
2010,08,16,00,58,19.30
2010,08,16,00,59,19.30
2010,08,16,01,00,19.20
2010,08,16,01,01,19.20
2010,08,16,01,02,19.20
2010,08,16,01,03,19.20
2010,08,16,01,04,19.20
2010,08,16,01,05,19.20
2010,08,16,01,06,19.20
2010,08,16,01,07,19.20
2010,08,16,01,08,19.20
2010,08,16,01,09,19.20
2010,08,16,01,10,19.20
2010,08,16,01,11,19.10
2010,08,16,01,12,19.10
2010,08,16,01,13,19.10
2010,08,16,01,14,18.90
2010,08,16,01,15,18.90
2010,08,16,01,16,18.90
2010,08,16,01,17,18.80
2010,08,16,01,18,18.70
2010,08,16,01,19,18.70
2010,08,16,01,20,18.70
2010,08,16,01,21,18.70
2010,08,16,01,22,18.80
2010,08,16,01,23,18.80
2010,08,16,01,24,18.90
2010,08,16,01,25,18.90
2010,08,16,01,26,19.00
2010,08,16,01,27,19.10
2010,08,16,01,28,19.10
2010,08,16,01,29,19.10
2010,08,16,01,30,19.10
2010,08,16,01,31,19.20
2010,08,16,01,32,19.20
2010,08,16,01,33,19.20
2010,08,16,01,34,19.30
2010,08,16,01,35,19.30
2010,08,16,01,36,19.40
2010,08,16,01,37,19.60
2010,08,16,01,38,19.80
2010,08,16,01,39,20.00
2010,08,16,01,40,20.20
2010,08,16,01,41,20.40
2010,08,16,01,42,20.60
2010,08,16,01,43,20.70
2010,08,16,01,44,20.90
2010,08,16,01,45,21.10
2010,08,16,01,46,21.30
2010,08,16,01,47,21.40
2010,08,16,01,48,21.60
2010,08,16,01,49,21.60
2010,08,16,01,50,21.70
2010,08,16,01,51,21.80
2010,08,16,01,52,21.80
2010,08,16,01,53,21.80
2010,08,16,01,54,21.80
2010,08,16,01,55,21.80
2010,08,16,01,56,21.80
2010,08,16,01,57,21.80
2010,08,16,01,58,21.70
2010,08,16,01,59,21.60
2010,08,16,02,00,21.60
2010,08,16,02,01,21.60
2010,08,16,02,02,21.40
2010,08,16,02,03,21.40
2010,08,16,02,04,21.30
2010,08,16,02,05,21.30
2010,08,16,02,06,21.20
2010,08,16,02,07,21.00
2010,08,16,02,08,20.70
2010,08,16,02,09,20.50
2010,08,16,02,10,20.40
2010,08,16,02,11,20.30
2010,08,16,02,12,20.20
2010,08,16,02,13,20.10
2010,08,16,02,14,19.90
2010,08,16,02,15,19.90
2010,08,16,02,16,19.80
2010,08,16,02,17,19.70
2010,08,16,02,18,19.60
2010,08,16,02,19,19.60
2010,08,16,02,20,19.60
2010,08,16,02,21,19.60
2010,08,16,02,22,19.60
2010,08,16,02,23,19.60
2010,08,16,02,24,19.60
2010,08,16,02,25,19.60
2010,08,16,02,26,19.60
2010,08,16,02,27,19.60
2010,08,16,02,28,19.60
2010,08,16,02,29,19.60
2010,08,16,02,30,19.50
2010,08,16,02,31,19.50
2010,08,16,02,32,19.60
2010,08,16,02,33,19.60
2010,08,16,02,34,19.70
2010,08,16,02,35,19.70
2010,08,16,02,36,19.80
2010,08,16,02,37,19.80
2010,08,16,02,38,19.90
2010,08,16,02,39,19.90
2010,08,16,02,40,19.90
2010,08,16,02,41,19.80
2010,08,16,02,42,19.90
2010,08,16,02,43,19.90
2010,08,16,02,44,19.90
2010,08,16,02,45,19.90
2010,08,16,02,46,19.90
2010,08,16,02,47,19.90
2010,08,16,02,48,20.00
2010,08,16,02,49,20.10
2010,08,16,02,50,20.20
2010,08,16,02,51,20.20
2010,08,16,02,52,20.30
2010,08,16,02,53,20.30
2010,08,16,02,54,20.30
2010,08,16,02,55,20.20
2010,08,16,02,56,20.20
2010,08,16,02,57,20.10
2010,08,16,02,58,20.00
2010,08,16,02,59,19.90
2010,08,16,03,00,19.80
2010,08,16,03,01,19.60
2010,08,16,03,02,19.50
2010,08,16,03,03,19.30
2010,08,16,03,04,19.10
2010,08,16,03,05,18.90
2010,08,16,03,06,18.80
2010,08,16,03,07,18.60
2010,08,16,03,08,18.50
2010,08,16,03,09,18.40
2010,08,16,03,10,18.40
2010,08,16,03,11,18.30
2010,08,16,03,12,18.20
2010,08,16,03,13,18.20
2010,08,16,03,14,18.10
2010,08,16,03,15,18.10
2010,08,16,03,16,18.00
2010,08,16,03,17,17.90
2010,08,16,03,18,17.90
2010,08,16,03,19,17.90
2010,08,16,03,20,17.90
2010,08,16,03,21,18.10
2010,08,16,03,22,18.10
2010,08,16,03,23,18.10
2010,08,16,03,24,18.10
2010,08,16,03,25,18.10
2010,08,16,03,26,18.20
2010,08,16,03,27,18.20
2010,08,16,03,28,18.20
2010,08,16,03,29,18.20
2010,08,16,03,30,18.20
2010,08,16,03,31,18.20
2010,08,16,03,32,18.20
2010,08,16,03,33,18.20
2010,08,16,03,34,18.20
2010,08,16,03,35,18.20
2010,08,16,03,36,18.20
2010,08,16,03,37,18.20
2010,08,16,03,38,18.30
2010,08,16,03,39,18.30
2010,08,16,03,40,18.30
2010,08,16,03,41,18.30
2010,08,16,03,42,18.30
2010,08,16,03,43,18.20
2010,08,16,03,44,18.20
2010,08,16,03,45,18.20
2010,08,16,03,46,18.20
2010,08,16,03,47,18.30
2010,08,16,03,48,18.30
2010,08,16,03,49,18.30
2010,08,16,03,50,18.30
2010,08,16,03,51,18.30
2010,08,16,03,52,18.30
2010,08,16,03,53,18.30
2010,08,16,03,54,18.30
2010,08,16,03,55,18.30
2010,08,16,03,56,18.30
2010,08,16,03,57,18.30
2010,08,16,03,58,18.30
2010,08,16,03,59,18.30
2010,08,16,04,00,18.30
2010,08,16,04,01,18.30
2010,08,16,04,02,18.20
2010,08,16,04,03,18.20
2010,08,16,04,04,18.20
2010,08,16,04,05,18.20
2010,08,16,04,06,18.20
2010,08,16,04,07,18.20
2010,08,16,04,08,18.20
2010,08,16,04,09,18.10
2010,08,16,04,10,18.10
2010,08,16,04,11,18.10
2010,08,16,04,12,18.10
2010,08,16,04,13,17.90
2010,08,16,04,14,17.90
2010,08,16,04,15,17.90
2010,08,16,04,16,17.90
2010,08,16,04,17,17.90
2010,08,16,04,18,17.90
2010,08,16,04,19,17.90
2010,08,16,04,20,17.90
2010,08,16,04,21,17.90
2010,08,16,04,22,17.90
2010,08,16,04,23,17.90
2010,08,16,04,24,17.80
2010,08,16,04,25,17.80
2010,08,16,04,26,17.80
2010,08,16,04,27,17.70
2010,08,16,04,28,17.70
2010,08,16,04,29,17.70
2010,08,16,04,30,17.60
2010,08,16,04,31,17.60
2010,08,16,04,32,17.60
2010,08,16,04,33,17.50
2010,08,16,04,34,17.50
2010,08,16,04,35,17.50
2010,08,16,04,36,17.50
2010,08,16,04,37,17.50
2010,08,16,04,38,17.50
2010,08,16,04,39,17.50
2010,08,16,04,40,17.40
2010,08,16,04,41,17.40
2010,08,16,04,42,17.50
2010,08,16,04,43,17.40
2010,08,16,04,44,17.40
2010,08,16,04,45,17.40
2010,08,16,04,46,17.40
2010,08,16,04,47,17.40
2010,08,16,04,48,17.30
2010,08,16,04,49,17.30
2010,08,16,04,50,17.20
2010,08,16,04,51,17.10
2010,08,16,04,52,17.10
2010,08,16,04,53,17.00
2010,08,16,04,54,17.00
2010,08,16,04,55,17.00
2010,08,16,04,56,17.00
2010,08,16,04,57,16.90
2010,08,16,04,58,16.90
2010,08,16,04,59,16.90
2010,08,16,05,00,16.80
2010,08,16,05,01,16.80
2010,08,16,05,02,16.80
2010,08,16,05,03,16.70
2010,08,16,05,04,16.70
2010,08,16,05,05,16.70
2010,08,16,05,06,16.70
2010,08,16,05,07,16.70
2010,08,16,05,08,16.70
2010,08,16,05,09,16.70
2010,08,16,05,10,16.70
2010,08,16,05,11,16.70
2010,08,16,05,12,16.70
2010,08,16,05,13,16.70
2010,08,16,05,14,16.70
2010,08,16,05,15,16.70
2010,08,16,05,16,16.70
2010,08,16,05,17,16.70
2010,08,16,05,18,16.70
2010,08,16,05,19,16.70
2010,08,16,05,20,16.70
2010,08,16,05,21,16.70
2010,08,16,05,22,16.70
2010,08,16,05,23,16.60
2010,08,16,05,24,16.60
2010,08,16,05,25,16.50
2010,08,16,05,26,16.40
2010,08,16,05,27,16.40
2010,08,16,05,28,16.40
2010,08,16,05,29,16.40
2010,08,16,05,30,16.40
2010,08,16,05,31,16.40
2010,08,16,05,32,16.40
2010,08,16,05,33,16.40
2010,08,16,05,34,16.40
2010,08,16,05,35,16.40
2010,08,16,05,36,16.40
2010,08,16,05,37,16.40
2010,08,16,05,38,16.40
2010,08,16,05,39,16.40
2010,08,16,05,40,16.40
2010,08,16,05,41,16.40
2010,08,16,05,42,16.40
2010,08,16,05,43,16.40
2010,08,16,05,44,16.40
2010,08,16,05,45,16.30
2010,08,16,05,46,16.30
2010,08,16,05,47,16.30
2010,08,16,05,48,16.30
2010,08,16,05,49,16.30
2010,08,16,05,50,16.20
2010,08,16,05,51,16.20
2010,08,16,05,52,16.20
2010,08,16,05,53,16.20
2010,08,16,05,54,16.20
2010,08,16,05,55,16.10
2010,08,16,05,56,16.10
2010,08,16,05,57,16.10
2010,08,16,05,58,16.10
2010,08,16,05,59,16.10
2010,08,16,06,00,16.00
2010,08,16,06,01,15.90
2010,08,16,06,02,15.90
2010,08,16,06,03,15.80
2010,08,16,06,04,15.80
2010,08,16,06,05,15.80
2010,08,16,06,06,15.80
2010,08,16,06,07,15.80
2010,08,16,06,08,15.80
2010,08,16,06,09,15.80
2010,08,16,06,10,15.70
2010,08,16,06,11,15.70
2010,08,16,06,12,15.70
2010,08,16,06,13,15.70
2010,08,16,06,14,15.70
2010,08,16,06,15,15.70
2010,08,16,06,16,15.70
2010,08,16,06,17,15.80
2010,08,16,06,18,15.80
2010,08,16,06,19,15.80
2010,08,16,06,20,15.80
2010,08,16,06,21,15.90
2010,08,16,06,22,15.90
2010,08,16,06,23,16.00
2010,08,16,06,24,16.10
2010,08,16,06,25,16.10
2010,08,16,06,26,16.10
2010,08,16,06,27,16.20
2010,08,16,06,28,16.20
2010,08,16,06,29,16.30
2010,08,16,06,30,16.30
2010,08,16,06,31,16.40
2010,08,16,06,32,16.40
2010,08,16,06,33,16.50
2010,08,16,06,34,16.60
2010,08,16,06,35,16.60
2010,08,16,06,36,16.70
2010,08,16,06,37,16.70
2010,08,16,06,38,16.70
2010,08,16,06,39,16.80
2010,08,16,06,40,16.80
2010,08,16,06,41,16.90
2010,08,16,06,42,16.90
2010,08,16,06,43,16.90
2010,08,16,06,44,16.90
2010,08,16,06,45,16.80
2010,08,16,06,46,16.80
2010,08,16,06,47,16.70
2010,08,16,06,48,16.80
2010,08,16,06,49,16.80
2010,08,16,06,50,16.80
2010,08,16,06,51,16.90
2010,08,16,06,52,16.90
2010,08,16,06,53,16.90
2010,08,16,06,54,17.00
2010,08,16,06,55,16.90
2010,08,16,06,56,16.90
2010,08,16,06,57,16.80
2010,08,16,06,58,16.80
2010,08,16,06,59,16.70
2010,08,16,07,00,16.70
2010,08,16,07,01,16.70
2010,08,16,07,02,16.60
2010,08,16,07,03,16.60
2010,08,16,07,04,16.50
2010,08,16,07,05,16.40
2010,08,16,07,06,16.40
2010,08,16,07,07,16.40
2010,08,16,07,08,16.40
2010,08,16,07,09,16.40
2010,08,16,07,10,16.50
2010,08,16,07,11,16.60
2010,08,16,07,12,16.60
2010,08,16,07,13,16.60
2010,08,16,07,14,16.60
2010,08,16,07,15,16.70
2010,08,16,07,16,16.70
2010,08,16,07,17,16.70
2010,08,16,07,18,16.70
2010,08,16,07,19,16.70
2010,08,16,07,20,16.70
2010,08,16,07,21,16.70
2010,08,16,07,22,16.80
2010,08,16,07,23,16.80
2010,08,16,07,24,16.80
2010,08,16,07,25,16.90
2010,08,16,07,26,16.90
2010,08,16,07,27,16.90
2010,08,16,07,28,17.00
2010,08,16,07,29,17.00
2010,08,16,07,30,17.00
2010,08,16,07,31,17.10
2010,08,16,07,32,17.10
2010,08,16,07,33,17.10
2010,08,16,07,34,17.20
2010,08,16,07,35,17.20
2010,08,16,07,36,17.30
2010,08,16,07,37,17.30
2010,08,16,07,38,17.30
2010,08,16,07,39,17.40
2010,08,16,07,40,17.50
2010,08,16,07,41,17.50
2010,08,16,07,42,17.60
2010,08,16,07,43,17.70
2010,08,16,07,44,17.70
2010,08,16,07,45,17.80
2010,08,16,07,46,17.80
2010,08,16,07,47,17.80
2010,08,16,07,48,17.90
2010,08,16,07,49,17.90
2010,08,16,07,50,17.90
2010,08,16,07,51,18.00
2010,08,16,07,52,18.10
2010,08,16,07,53,18.10
2010,08,16,07,54,18.20
2010,08,16,07,55,18.20
2010,08,16,07,56,18.20
2010,08,16,07,57,18.30
2010,08,16,07,58,18.30
2010,08,16,07,59,18.40
2010,08,16,08,00,18.40
2010,08,16,08,01,18.40
2010,08,16,08,02,18.50
2010,08,16,08,03,18.50
2010,08,16,08,04,18.60
2010,08,16,08,05,18.60
2010,08,16,08,06,18.70
2010,08,16,08,07,18.70
2010,08,16,08,08,18.80
2010,08,16,08,09,18.90
2010,08,16,08,10,18.90
2010,08,16,08,11,18.90
2010,08,16,08,12,19.00
2010,08,16,08,13,19.10
2010,08,16,08,14,19.10
2010,08,16,08,15,19.10
2010,08,16,08,16,19.20
2010,08,16,08,17,19.30
2010,08,16,08,18,19.40
2010,08,16,08,19,19.40
2010,08,16,08,20,19.50
2010,08,16,08,21,19.50
2010,08,16,08,22,19.60
2010,08,16,08,23,19.60
2010,08,16,08,24,19.70
2010,08,16,08,25,19.70
2010,08,16,08,26,19.80
2010,08,16,08,27,19.90
2010,08,16,08,28,19.90
2010,08,16,08,29,20.00
2010,08,16,08,30,20.10
2010,08,16,08,31,20.20
2010,08,16,08,32,20.20
2010,08,16,08,33,20.20
2010,08,16,08,34,20.30
2010,08,16,08,35,20.30
2010,08,16,08,36,20.40
2010,08,16,08,37,20.50
2010,08,16,08,38,20.60
2010,08,16,08,39,20.70
2010,08,16,08,40,20.80
2010,08,16,08,41,21.00
2010,08,16,08,42,21.10
2010,08,16,08,43,21.10
2010,08,16,08,44,21.20
2010,08,16,08,45,21.40
2010,08,16,08,46,21.50
2010,08,16,08,47,21.70
2010,08,16,08,48,21.70
2010,08,16,08,49,21.80
2010,08,16,08,50,21.90
2010,08,16,08,51,22.00
2010,08,16,08,52,22.00
2010,08,16,08,53,22.10
2010,08,16,08,54,22.20
2010,08,16,08,55,22.30
2010,08,16,08,56,22.30
2010,08,16,08,57,22.50
2010,08,16,08,58,22.60
2010,08,16,08,59,22.70
2010,08,16,09,00,22.80
2010,08,16,09,01,22.90
2010,08,16,09,02,22.90
2010,08,16,09,03,23.10
2010,08,16,09,04,23.20
2010,08,16,09,05,23.20
2010,08,16,09,06,23.30
2010,08,16,09,07,23.30
2010,08,16,09,08,23.30
2010,08,16,09,09,23.40
2010,08,16,09,10,23.50
2010,08,16,09,11,23.60
2010,08,16,09,12,23.60
2010,08,16,09,13,23.60
2010,08,16,09,14,23.60
2010,08,16,09,15,23.40
2010,08,16,09,16,23.40
2010,08,16,09,17,23.60
2010,08,16,09,18,23.60
2010,08,16,09,19,23.60
2010,08,16,09,20,23.70
2010,08,16,09,21,23.70
2010,08,16,09,22,23.70
2010,08,16,09,23,23.70
2010,08,16,09,24,23.80
2010,08,16,09,25,23.90
2010,08,16,09,26,23.90
2010,08,16,09,27,23.90
2010,08,16,09,28,24.10
2010,08,16,09,29,24.10
2010,08,16,09,30,24.10
2010,08,16,09,31,24.10
2010,08,16,09,32,24.10
2010,08,16,09,33,24.10
2010,08,16,09,34,23.90
2010,08,16,09,35,23.80
2010,08,16,09,36,23.70
2010,08,16,09,37,23.70
2010,08,16,09,38,23.60
2010,08,16,09,39,23.60
2010,08,16,09,40,23.60
2010,08,16,09,41,23.70
2010,08,16,09,42,23.70
2010,08,16,09,43,23.80
2010,08,16,09,44,23.80
2010,08,16,09,45,23.90
2010,08,16,09,46,24.00
2010,08,16,09,47,24.10
2010,08,16,09,48,24.10
2010,08,16,09,49,24.20
2010,08,16,09,50,24.30
2010,08,16,09,51,24.30
2010,08,16,09,52,24.40
2010,08,16,09,53,24.40
2010,08,16,09,54,24.40
2010,08,16,09,55,24.40
2010,08,16,09,56,24.30
2010,08,16,09,57,24.20
2010,08,16,09,58,24.10
2010,08,16,09,59,24.10
2010,08,16,10,00,24.10
2010,08,16,10,01,24.20
2010,08,16,10,02,24.20
2010,08,16,10,03,24.30
2010,08,16,10,04,24.30
2010,08,16,10,05,24.20
2010,08,16,10,06,24.20
2010,08,16,10,07,24.10
2010,08,16,10,08,24.10
2010,08,16,10,09,24.00
2010,08,16,10,10,23.90
2010,08,16,10,11,23.80
2010,08,16,10,12,23.70
2010,08,16,10,13,23.70
2010,08,16,10,14,23.60
2010,08,16,10,15,23.60
2010,08,16,10,16,23.60
2010,08,16,10,17,23.50
2010,08,16,10,18,23.40
2010,08,16,10,19,23.40
2010,08,16,10,20,23.40
2010,08,16,10,21,23.40
2010,08,16,10,22,23.40
2010,08,16,10,23,23.50
2010,08,16,10,24,23.60
2010,08,16,10,25,23.60
2010,08,16,10,26,23.60
2010,08,16,10,27,23.70
2010,08,16,10,28,23.70
2010,08,16,10,29,23.80
2010,08,16,10,30,23.90
2010,08,16,10,31,23.90
2010,08,16,10,32,24.00
2010,08,16,10,33,24.10
2010,08,16,10,34,24.10
2010,08,16,10,35,24.20
2010,08,16,10,36,24.20
2010,08,16,10,37,24.30
2010,08,16,10,38,24.40
2010,08,16,10,39,24.40
2010,08,16,10,40,24.40
2010,08,16,10,41,24.40
2010,08,16,10,42,24.40
2010,08,16,10,43,24.40
2010,08,16,10,44,24.40
2010,08,16,10,45,24.50
2010,08,16,10,46,24.50
2010,08,16,10,47,24.60
2010,08,16,10,48,24.60
2010,08,16,10,49,24.70
2010,08,16,10,50,24.80
2010,08,16,10,51,24.80
2010,08,16,10,52,24.80
2010,08,16,10,53,24.70
2010,08,16,10,54,24.60
2010,08,16,10,55,24.40
2010,08,16,10,56,24.10
2010,08,16,10,57,24.00
2010,08,16,10,58,23.80
2010,08,16,10,59,23.70
2010,08,16,11,00,23.60
2010,08,16,11,01,23.60
2010,08,16,11,02,23.60
2010,08,16,11,03,23.70
2010,08,16,11,04,23.70
2010,08,16,11,05,23.80
2010,08,16,11,06,24.00
2010,08,16,11,07,24.10
2010,08,16,11,08,24.20
2010,08,16,11,09,24.20
2010,08,16,11,10,24.30
2010,08,16,11,11,24.40
2010,08,16,11,12,24.50
2010,08,16,11,13,24.60
2010,08,16,11,14,24.70
2010,08,16,11,15,24.70
2010,08,16,11,16,24.80
2010,08,16,11,17,24.90
2010,08,16,11,18,25.00
2010,08,16,11,19,25.00
2010,08,16,11,20,25.10
2010,08,16,11,21,25.20
2010,08,16,11,22,25.30
2010,08,16,11,23,25.40
2010,08,16,11,24,25.50
2010,08,16,11,25,25.60
2010,08,16,11,26,25.60
2010,08,16,11,27,25.60
2010,08,16,11,28,25.60
2010,08,16,11,29,25.60
2010,08,16,11,30,25.50
2010,08,16,11,31,25.40
2010,08,16,11,32,25.40
2010,08,16,11,33,25.50
2010,08,16,11,34,25.60
2010,08,16,11,35,25.60
2010,08,16,11,36,25.60
2010,08,16,11,37,25.60
2010,08,16,11,38,25.60
2010,08,16,11,39,25.70
2010,08,16,11,40,25.70
2010,08,16,11,41,25.80
2010,08,16,11,42,25.80
2010,08,16,11,43,25.90
2010,08,16,11,44,26.00
2010,08,16,11,45,26.10
2010,08,16,11,46,26.10
2010,08,16,11,47,26.20
2010,08,16,11,48,26.30
2010,08,16,11,49,26.30
2010,08,16,11,50,26.10
2010,08,16,11,51,25.90
2010,08,16,11,52,25.90
2010,08,16,11,53,25.80
2010,08,16,11,54,25.50
2010,08,16,11,55,25.30
2010,08,16,11,56,25.10
2010,08,16,11,57,24.90
2010,08,16,11,58,24.80
2010,08,16,11,59,24.80
2010,08,16,12,00,24.70
2010,08,16,12,01,24.70
2010,08,16,12,02,24.50
2010,08,16,12,03,24.50
2010,08,16,12,04,24.30
2010,08,16,12,05,24.40
2010,08,16,12,06,24.40
2010,08,16,12,07,24.30
2010,08,16,12,08,24.30
2010,08,16,12,09,24.30
2010,08,16,12,10,24.20
2010,08,16,12,11,24.20
2010,08,16,12,12,24.10
2010,08,16,12,13,24.10
2010,08,16,12,14,24.10
2010,08,16,12,15,24.00
2010,08,16,12,16,23.90
2010,08,16,12,17,23.80
2010,08,16,12,18,23.80
2010,08,16,12,19,24.00
2010,08,16,12,20,24.10
2010,08,16,12,21,24.10
2010,08,16,12,22,24.10
2010,08,16,12,23,24.10
2010,08,16,12,24,24.00
2010,08,16,12,25,23.90
2010,08,16,12,26,23.80
2010,08,16,12,27,23.80
2010,08,16,12,28,23.90
2010,08,16,12,29,23.90
2010,08,16,12,30,24.00
2010,08,16,12,31,24.10
2010,08,16,12,32,24.10
2010,08,16,12,33,24.10
2010,08,16,12,34,24.20
2010,08,16,12,35,24.20
2010,08,16,12,36,24.10
2010,08,16,12,37,24.20
2010,08,16,12,38,24.20
2010,08,16,12,39,24.10
2010,08,16,12,40,24.10
2010,08,16,12,41,24.10
2010,08,16,12,42,24.20
2010,08,16,12,43,24.30
2010,08,16,12,44,24.30
2010,08,16,12,45,24.30
2010,08,16,12,46,24.20
2010,08,16,12,47,24.30
2010,08,16,12,48,24.30
2010,08,16,12,49,24.20
2010,08,16,12,50,24.30
2010,08,16,12,51,24.30
2010,08,16,12,52,24.40
2010,08,16,12,53,24.40
2010,08,16,12,54,24.50
2010,08,16,12,55,24.50
2010,08,16,12,56,24.60
2010,08,16,12,57,24.70
2010,08,16,12,58,24.80
2010,08,16,12,59,24.90
2010,08,16,13,00,25.10
2010,08,16,13,01,25.10
2010,08,16,13,02,25.00
2010,08,16,13,03,24.90
2010,08,16,13,04,24.90
2010,08,16,13,05,24.80
2010,08,16,13,06,24.70
2010,08,16,13,07,24.50
2010,08,16,13,08,24.40
2010,08,16,13,09,24.30
2010,08,16,13,10,24.20
2010,08,16,13,11,24.10
2010,08,16,13,12,24.10
2010,08,16,13,13,24.20
2010,08,16,13,14,24.20
2010,08,16,13,15,24.20
2010,08,16,13,16,24.30
2010,08,16,13,17,24.40
2010,08,16,13,18,24.40
2010,08,16,13,19,24.30
2010,08,16,13,20,24.40
2010,08,16,13,21,24.50
2010,08,16,13,22,24.70
2010,08,16,13,23,24.80
2010,08,16,13,24,24.80
2010,08,16,13,25,24.80
2010,08,16,13,26,24.80
2010,08,16,13,27,24.80
2010,08,16,13,28,24.80
2010,08,16,13,29,24.80
2010,08,16,13,30,24.90
2010,08,16,13,31,25.00
2010,08,16,13,32,25.20
2010,08,16,13,33,25.30
2010,08,16,13,34,25.40
2010,08,16,13,35,25.40
2010,08,16,13,36,25.40
2010,08,16,13,37,25.50
2010,08,16,13,38,25.50
2010,08,16,13,39,25.40
2010,08,16,13,40,25.40
2010,08,16,13,41,25.40
2010,08,16,13,42,25.40
2010,08,16,13,43,25.30
2010,08,16,13,44,25.20
2010,08,16,13,45,25.30
2010,08,16,13,46,25.30
2010,08,16,13,47,25.40
2010,08,16,13,48,25.40
2010,08,16,13,49,25.40
2010,08,16,13,50,25.40
2010,08,16,13,51,25.40
2010,08,16,13,52,25.30
2010,08,16,13,53,25.30
2010,08,16,13,54,25.30
2010,08,16,13,55,25.30
2010,08,16,13,56,25.30
2010,08,16,13,57,25.30
2010,08,16,13,58,25.30
2010,08,16,13,59,25.30
2010,08,16,14,00,25.30
2010,08,16,14,01,25.40
2010,08,16,14,02,25.50
2010,08,16,14,03,25.50
2010,08,16,14,04,25.50
2010,08,16,14,05,25.50
2010,08,16,14,06,25.50
2010,08,16,14,07,25.50
2010,08,16,14,08,25.60
2010,08,16,14,09,25.60
2010,08,16,14,10,25.60
2010,08,16,14,11,25.60
2010,08,16,14,12,25.50
2010,08,16,14,13,25.60
2010,08,16,14,14,25.70
2010,08,16,14,15,25.70
2010,08,16,14,16,25.70
2010,08,16,14,17,25.70
2010,08,16,14,18,25.70
2010,08,16,14,19,25.60
2010,08,16,14,20,25.60
2010,08,16,14,21,25.70
2010,08,16,14,22,25.70
2010,08,16,14,23,25.70
2010,08,16,14,24,25.70
2010,08,16,14,25,25.70
2010,08,16,14,26,25.80
2010,08,16,14,27,25.80
2010,08,16,14,28,25.80
2010,08,16,14,29,25.90
2010,08,16,14,30,25.90
2010,08,16,14,31,25.90
2010,08,16,14,32,26.00
2010,08,16,14,33,26.00
2010,08,16,14,34,26.00
2010,08,16,14,35,26.00
2010,08,16,14,36,26.00
2010,08,16,14,37,25.80
2010,08,16,14,38,25.80
2010,08,16,14,39,25.80
2010,08,16,14,40,25.90
2010,08,16,14,41,25.90
2010,08,16,14,42,26.00
2010,08,16,14,43,26.00
2010,08,16,14,44,26.00
2010,08,16,14,45,26.00
2010,08,16,14,46,25.90
2010,08,16,14,47,25.90
2010,08,16,14,48,26.00
2010,08,16,14,49,26.00
2010,08,16,14,50,26.00
2010,08,16,14,51,26.00
2010,08,16,14,52,26.00
2010,08,16,14,53,26.00
2010,08,16,14,54,25.90
2010,08,16,14,55,26.00
2010,08,16,14,56,26.00
2010,08,16,14,57,26.00
2010,08,16,14,58,26.00
2010,08,16,14,59,25.90
2010,08,16,15,00,25.90
2010,08,16,15,01,25.90
2010,08,16,15,02,25.90
2010,08,16,15,03,25.90
2010,08,16,15,04,25.90
2010,08,16,15,05,25.80
2010,08,16,15,06,25.80
2010,08,16,15,07,25.90
2010,08,16,15,08,25.90
2010,08,16,15,09,26.00
2010,08,16,15,10,26.00
2010,08,16,15,11,26.00
2010,08,16,15,12,25.90
2010,08,16,15,13,25.90
2010,08,16,15,14,25.90
2010,08,16,15,15,25.80
2010,08,16,15,16,25.70
2010,08,16,15,17,25.60
2010,08,16,15,18,25.60
2010,08,16,15,19,25.70
2010,08,16,15,20,25.80
2010,08,16,15,21,25.80
2010,08,16,15,22,25.70
2010,08,16,15,23,25.80
2010,08,16,15,24,25.90
2010,08,16,15,25,26.00
2010,08,16,15,26,26.00
2010,08,16,15,27,26.00
2010,08,16,15,28,26.00
2010,08,16,15,29,26.00
2010,08,16,15,30,26.10
2010,08,16,15,31,26.10
2010,08,16,15,32,26.20
2010,08,16,15,33,26.30
2010,08,16,15,34,26.40
2010,08,16,15,35,26.40
2010,08,16,15,36,26.30
2010,08,16,15,37,26.30
2010,08,16,15,38,26.30
2010,08,16,15,39,26.20
2010,08,16,15,40,26.10
2010,08,16,15,41,25.90
2010,08,16,15,42,25.90
2010,08,16,15,43,26.10
2010,08,16,15,44,26.20
2010,08,16,15,45,26.30
2010,08,16,15,46,26.30
2010,08,16,15,47,26.30
2010,08,16,15,48,26.30
2010,08,16,15,49,26.20
2010,08,16,15,50,26.20
2010,08,16,15,51,26.30
2010,08,16,15,52,26.40
2010,08,16,15,53,26.40
2010,08,16,15,54,26.40
2010,08,16,15,55,26.40
2010,08,16,15,56,26.40
2010,08,16,15,57,26.50
2010,08,16,15,58,26.60
2010,08,16,15,59,26.60
2010,08,16,16,00,26.70
2010,08,16,16,01,26.80
2010,08,16,16,02,26.80
2010,08,16,16,03,26.80
2010,08,16,16,04,26.70
2010,08,16,16,05,26.60
2010,08,16,16,06,26.60
2010,08,16,16,07,26.60
2010,08,16,16,08,26.40
2010,08,16,16,09,26.40
2010,08,16,16,10,26.20
2010,08,16,16,11,26.10
2010,08,16,16,12,26.10
2010,08,16,16,13,26.00
2010,08,16,16,14,26.00
2010,08,16,16,15,26.00
2010,08,16,16,16,26.00
2010,08,16,16,17,26.10
2010,08,16,16,18,26.10
2010,08,16,16,19,26.20
2010,08,16,16,20,26.20
2010,08,16,16,21,26.10
2010,08,16,16,22,26.00
2010,08,16,16,23,26.00
2010,08,16,16,24,26.00
2010,08,16,16,25,25.90
2010,08,16,16,26,26.00
2010,08,16,16,27,26.00
2010,08,16,16,28,26.10
2010,08,16,16,29,26.10
2010,08,16,16,30,25.90
2010,08,16,16,31,25.80
2010,08,16,16,32,25.70
2010,08,16,16,33,25.70
2010,08,16,16,34,25.60
2010,08,16,16,35,25.60
2010,08,16,16,36,25.50
2010,08,16,16,37,25.50
2010,08,16,16,38,25.60
2010,08,16,16,39,25.60
2010,08,16,16,40,25.60
2010,08,16,16,41,25.60
2010,08,16,16,42,25.40
2010,08,16,16,43,25.30
2010,08,16,16,44,25.10
2010,08,16,16,45,25.00
2010,08,16,16,46,25.00
2010,08,16,16,47,24.90
2010,08,16,16,48,24.90
2010,08,16,16,49,24.80
2010,08,16,16,50,24.80
2010,08,16,16,51,24.80
2010,08,16,16,52,24.80
2010,08,16,16,53,24.80
2010,08,16,16,54,24.70
2010,08,16,16,55,24.70
2010,08,16,16,56,24.70
2010,08,16,16,57,24.60
2010,08,16,16,58,24.60
2010,08,16,16,59,24.60
2010,08,16,17,00,24.60
2010,08,16,17,01,24.60
2010,08,16,17,02,24.60
2010,08,16,17,03,24.50
2010,08,16,17,04,24.50
2010,08,16,17,05,24.50
2010,08,16,17,06,24.60
2010,08,16,17,07,24.60
2010,08,16,17,08,24.70
2010,08,16,17,09,24.80
2010,08,16,17,10,24.80
2010,08,16,17,11,24.90
2010,08,16,17,12,24.90
2010,08,16,17,13,24.90
2010,08,16,17,14,24.90
2010,08,16,17,15,24.90
2010,08,16,17,16,24.90
2010,08,16,17,17,24.90
2010,08,16,17,18,24.80
2010,08,16,17,19,24.70